EW7070 Weather Reports


time (UTC)temp
C
wind
direction
speed
KPH
gust
KPH
rain 1hr
cm
rain 24hr
cm
rain mn
cm
humidity
%
barometer
mb
20260831032451 16 310 0.0 3.2 0.00 0.10 0.00 94 1013.1
20260831031948 16 310 0.0 3.2 0.00 0.10 0.00 94 1012.9
20260831031443 16 310 0.0 3.2 0.00 0.10 0.00 94 1013.2
20260831030947 16 249 1.6 4.8 0.00 0.10 0.00 94 1013.2
20260831030421 16 249 3.2 6.4 0.00 0.10 0.00 94 1013.0
20260831025903 16 254 3.2 6.4 0.00 0.10 0.10 94 1013.3
20260831025402 16 235 1.6 4.8 0.00 0.10 0.10 94 1012.9
20260831024842 16 133 1.6 6.4 0.00 0.10 0.10 94 1012.8
20260831024341 16 172 3.2 6.4 0.00 0.10 0.10 94 1012.8
20260831023839 16 126 3.2 6.4 0.00 0.10 0.10 94 1012.8
20260831023608 16 124 3.2 11.3 0.00 0.10 0.10 94 1012.9
20260831022836 16 81 3.2 11.3 0.00 0.10 0.10 94 1013.6
20260831022608 17 110 4.8 11.3 0.00 0.10 0.10 94 1013.7
20260831021837 16 101 4.8 11.3 0.00 0.10 0.10 94 1013.3
20260831021336 17 89 3.2 9.7 0.00 0.10 0.10 94 1013.2
20260831021109 17 168 3.2 8.0 0.00 0.10 0.10 94 1013.2
20260831020318 17 160 4.8 9.7 0.00 0.10 0.10 94 1013.4
20260831015816 17 116 3.2 9.7 0.00 0.10 0.10 94 1013.1
20260831015305 17 148 1.6 6.4 0.00 0.10 0.10 94 1013.3
20260831014804 17 182 3.2 9.7 0.00 0.10 0.10 94 1013.3
20260831014236 17 102 4.8 9.7 0.00 0.10 0.10 94 1013.2
20260831013732 17 112 3.2 9.7 0.00 0.10 0.10 94 1013.7
20260831013223 17 122 8.0 17.7 0.00 0.10 0.10 94 1013.7
20260831012929 17 143 11.3 17.7 0.00 0.10 0.10 94 1013.6
20260831012145 17 111 9.7 16.1 0.00 0.10 0.10 95 1013.7
20260831011648 17 99 9.7 17.7 0.00 0.10 0.10 95 1013.7
20260831011131 17 148 9.7 20.9 0.00 0.10 0.10 95 1013.8
20260831010632 17 102 9.7 20.9 0.00 0.10 0.10 95 1013.9
20260831010131 17 108 9.7 20.9 0.00 0.10 0.10 95 1013.9
20260831005629 17 116 8.0 20.9 0.00 0.10 0.10 95 1013.7
20260831005127 17 115 6.4 16.1 0.00 0.10 0.10 95 1013.8
20260831004616 17 149 4.8 16.1 0.03 0.10 0.10 95 1014.0
20260831004116 17 117 3.2 12.9 0.08 0.10 0.10 95 1014.3
20260831003548 17 139 3.2 12.9 0.08 0.10 0.10 95 1014.9
20260831003045 17 123 4.8 12.9 0.08 0.10 0.10 95 1014.5
20260831002537 17 146 4.8 12.9 0.08 0.10 0.10 94 1014.4
20260831002306 17 108 8.0 16.1 0.08 0.10 0.10 94 1014.9
20260831001510 17 114 8.0 16.1 0.08 0.10 0.10 94 1014.5
20260831001006 17 110 3.2 12.9 0.08 0.10 0.10 93 1014.3
20260831000504 17 148 1.6 16.1 0.08 0.10 0.10 93 1015.0
20260830235949 17 103 3.2 16.1 0.08 0.10 0.10 93 1015.0
20260830235437 17 132 3.2 16.1 0.08 0.10 0.10 92 1014.9
20260830234936 17 107 4.8 16.1 0.08 0.10 0.10 92 1015.1
20260830234410 17 312 4.8 14.5 0.05 0.08 0.08 92 1015.5
20260830233844 18 141 6.4 19.3 0.00 0.03 0.03 91 1015.4
20260830233341 18 196 8.0 24.1 0.03 0.03 0.03 91 1014.5
20260830232843 17 287 8.0 24.1 0.03 0.03 0.03 92 1015.9
20260830232339 17 255 6.4 16.1 0.03 0.03 0.03 92 1014.5
20260830231843 17 91 6.4 16.1 0.03 0.03 0.03 92 1011.8
20260830231338 17 81 6.4 12.9 0.03 0.03 0.03 92 1011.7
20260830230835 17 115 6.4 16.1 0.03 0.03 0.03 92 1012.1
20260830230307 17 109 6.4 16.1 0.03 0.03 0.03 92 1011.7
20260830225734 18 122 6.4 12.9 0.03 0.03 0.03 92 1011.1
20260830225206 18 108 4.8 12.9 0.03 0.03 0.03 92 1011.5
20260830224915 18 208 4.8 14.5 0.03 0.03 0.03 91 1011.6
20260830224404 18 135 4.8 14.5 0.03 0.03 0.03 91 1011.6
20260830224117 18 103 3.2 11.3 0.00 0.00 0.00 91 1011.4
20260830223050 18 131 3.2 8.0 0.00 0.00 0.00 91 1011.7
20260830222518 18 126 3.2 4.8 0.00 0.00 0.00 90 1012.0
20260830222224 18 83 3.2 12.9 0.00 0.00 0.00 90 1012.2
20260830221450 18 125 4.8 8.0 0.00 0.00 0.00 90 1012.3
20260830221213 18 187 4.8 11.3 0.00 0.00 0.00 89 1012.4
20260830220416 18 95 1.6 6.4 0.00 0.00 0.00 89 1012.5
20260830215917 18 340 1.6 6.4 0.00 0.00 0.00 89 1012.7
20260830215407 18 339 3.2 12.9 0.00 0.00 0.00 89 1012.4
20260830214907 18 130 4.8 11.3 0.00 0.00 0.00 89 1011.8
20260830214405 18 168 4.8 17.7 0.00 0.00 0.00 89 1011.3
20260830213859 18 127 8.0 17.7 0.00 0.00 0.00 89 1011.3
20260830213350 18 165 6.4 17.7 0.00 0.00 0.00 89 1010.8
20260830213119 18 103 4.8 17.7 0.00 0.00 0.00 89 1010.9
20260830212357 18 121 4.8 12.9 0.00 0.00 0.00 89 1011.0
20260830211843 18 122 6.4 12.9 0.00 0.00 0.00 88 1011.4
20260830211343 18 167 4.8 12.9 0.00 0.00 0.00 88 1011.6
20260830210844 19 149 6.4 16.1 0.00 0.00 0.00 88 1011.3
20260830210320 19 122 6.4 14.5 0.00 0.00 0.00 88 1011.6
20260830205816 19 120 4.8 11.3 0.00 0.00 0.00 88 1012.1
20260830205315 19 164 3.2 8.0 0.00 0.00 0.00 88 1012.2
20260830204815 19 152 3.2 6.4 0.00 0.00 0.00 88 1012.5
20260830204303 19 112 1.6 4.8 0.00 0.00 0.00 87 1013.2
20260830203803 19 243 3.2 12.9 0.00 0.00 0.00 87 1013.0
20260830203236 19 156 4.8 12.9 0.00 0.00 0.00 88 1011.6
20260830202728 19 108 4.8 14.5 0.00 0.00 0.00 87 1010.9
20260830202204 19 118 4.8 12.9 0.00 0.00 0.00 88 1011.0
20260830201636 19 136 4.8 14.5 0.00 0.00 0.00 88 1011.6
20260830201126 19 119 4.8 14.5 0.00 0.00 0.00 87 1011.7
20260830200603 19 135 4.8 14.5 0.00 0.00 0.00 87 1011.5
20260830200040 19 106 4.8 16.1 0.00 0.00 0.00 87 1011.4
20260830195523 19 129 6.4 16.1 0.00 0.00 0.00 87 1011.3
20260830195026 20 108 6.4 16.1 0.00 0.00 0.00 87 1011.4
20260830194456 20 147 6.4 12.9 0.00 0.00 0.00 87 1011.4
20260830194431 20 118 6.4 12.9 0.00 0.00 0.00 87 1011.4
20260830193423 20 103 6.4 12.9 0.00 0.00 0.00 87 1011.6
20260830193124 20 137 4.8 12.9 0.00 0.00 0.00 87 1011.5
20260830192330 20 137 3.2 9.7 0.00 0.00 0.00 87 1011.6
20260830191818 20 126 3.2 12.9 0.00 0.00 0.00 87 1011.6
20260830191249 20 127 4.8 12.9 0.00 0.00 0.00 87 1011.6
20260830190955 20 119 3.2 11.3 0.00 0.00 0.00 86 1011.5
20260830190159 20 126 3.2 11.3 0.00 0.00 0.00 87 1011.5
20260830185655 20 126 3.2 9.7 0.00 0.00 0.00 87 1011.5
20260830185153 20 177 3.2 11.3 0.00 0.00 0.00 87 1011.7
20260830184652 20 182 4.8 11.3 0.00 0.00 0.00 87 1011.7
20260830184153 20 124 4.8 11.3 0.00 0.00 0.00 87 1011.5
20260830183626 20 105 3.2 11.3 0.00 0.00 0.00 87 1011.7
20260830183124 20 115 3.2 9.7 0.00 0.00 0.00 87 1011.8
20260830182556 20 111 4.8 14.5 0.00 0.00 0.00 86 1012.1
20260830182030 20 114 6.4 14.5 0.00 0.00 0.00 85 1012.0
20260830181505 20 74 4.8 12.9 0.00 0.00 0.00 86 1012.1
20260830180957 20 153 3.2 11.3 0.00 0.00 0.00 86 1012.9
20260830180456 20 116 4.8 9.7 0.00 0.00 0.00 86 1012.8
20260830175953 20 112 4.8 9.7 0.00 0.00 0.00 86 1012.2
20260830175446 20 132 3.2 9.7 0.00 0.00 0.00 86 1012.0
20260830174933 20 149 3.2 9.7 0.00 0.03 0.00 86 1011.9
20260830174432 20 166 1.6 8.0 0.00 0.03 0.00 86 1011.9
20260830173931 20 133 3.2 9.7 0.00 0.05 0.00 87 1012.2
20260830173432 20 104 4.8 14.5 0.00 0.08 0.00 87 1012.0
20260830172905 20 103 4.8 14.5 0.00 0.10 0.00 86 1011.9
20260830172401 20 120 3.2 6.4 0.00 0.13 0.00 87 1012.3
20260830172356 20 116 3.2 6.4 0.00 0.13 0.00 87 1012.7
20260830171351 20 131 1.6 8.0 0.00 0.15 0.00 86 1013.0
20260830170820 20 166 1.6 6.4 0.00 0.15 0.00 86 1012.9
20260830170527 20 163 1.6 4.8 0.00 0.18 0.00 86 1013.0
20260830165738 20 128 1.6 4.8 0.00 0.20 0.00 85 1013.2
20260830165236 20 120 1.6 4.8 0.00 0.28 0.00 85 1013.2
20260830164740 20 141 3.2 8.0 0.00 0.36 0.00 85 1013.4
20260830164211 20 102 3.2 8.0 0.00 0.38 0.00 85 1013.2
20260830163942 20 79 4.8 8.0 0.00 0.41 0.00 85 1013.2
20260830163157 20 85 4.8 12.9 0.00 0.41 0.00 85 1013.3
20260830162659 20 133 6.4 12.9 0.00 0.43 0.00 85 1013.2
20260830162131 20 103 4.8 12.9 0.00 0.43 0.00 85 1013.4
20260830161629 20 107 3.2 12.9 0.00 0.46 0.00 85 1013.4
20260830161329 20 143 3.2 12.9 0.00 0.48 0.00 85 1014.0
20260830160533 20 131 6.4 12.9 0.00 0.48 0.00 85 1013.5
20260830160005 20 106 4.8 14.5 0.00 0.53 0.00 85 1013.5
20260830155500 20 115 4.8 14.5 0.00 0.58 0.00 84 1013.9
20260830154956 20 113 6.4 16.1 0.00 0.66 0.00 83 1014.0
20260830154454 20 124 6.4 17.7 0.00 0.76 0.00 83 1013.9
20260830153928 20 136 6.4 16.1 0.00 0.84 0.00 84 1013.8
20260830153401 20 75 6.4 16.1 0.00 0.84 0.00 83 1013.6
20260830153107 20 103 4.8 11.3 0.00 0.84 0.00 84 1013.7
20260830152331 20 119 6.4 16.1 0.00 0.84 0.00 84 1013.6
20260830152058 20 126 6.4 17.7 0.00 0.84 0.00 83 1013.6
20260830151524 19 119 4.8 17.7 0.00 0.84 0.00 83 1013.8
20260830151001 20 107 4.8 16.1 0.00 0.86 0.00 83 1014.1
20260830150230 20 139 6.4 16.1 0.00 0.86 0.00 83 1014.1
20260830145729 20 131 4.8 12.9 0.00 0.86 0.00 83 1014.0
20260830145203 20 132 4.8 12.9 0.00 0.89 0.00 83 1014.3
20260830144657 20 91 6.4 16.1 0.00 0.94 0.00 82 1014.4
20260830144136 20 122 6.4 12.9 0.00 1.02 0.00 83 1014.3
20260830143621 20 118 8.0 16.1 0.00 1.02 0.00 83 1014.1
20260830143121 20 131 6.4 16.1 0.00 1.02 0.00 82 1014.1
20260830142556 20 158 6.4 16.1 0.00 1.02 0.00 82 1014.2
20260830142039 20 102 6.4 16.1 0.00 1.02 0.00 82 1014.0
20260830141537 20 119 6.4 16.1 0.00 1.02 0.00 82 1014.0
20260830141035 20 119 8.0 16.1 0.00 1.02 0.00 82 1014.2
20260830140534 20 104 9.7 20.9 0.00 1.02 0.00 82 1014.2
20260830140020 20 116 11.3 20.9 0.00 1.02 0.00 81 1014.4
20260830135521 20 113 9.7 19.3 0.00 1.02 0.00 81 1014.3
20260830135004 20 141 11.3 20.9 0.00 1.02 0.00 82 1014.2
20260830134504 20 112 11.3 20.9 0.00 1.02 0.00 83 1014.4
20260830134006 20 113 9.7 19.3 0.00 1.02 0.00 82 1014.6
20260830133440 20 112 8.0 16.1 0.00 1.02 0.00 83 1014.5
20260830132932 20 110 8.0 16.1 0.00 1.02 0.00 83 1014.5
20260830132431 19 101 11.3 22.5 0.00 1.02 0.00 83 1014.8
20260830131910 20 108 12.9 17.7 0.00 1.02 0.00 81 1014.8
20260830131358 20 111 12.9 22.5 0.00 1.02 0.00 82 1014.7
20260830130846 20 115 12.9 22.5 0.00 1.02 0.00 83 1014.5
20260830130618 20 107 12.9 20.9 0.00 1.02 0.00 82 1014.6
20260830125827 20 121 12.9 20.9 0.00 1.02 0.00 83 1014.9
20260830125532 20 106 12.9 19.3 0.00 1.02 0.00 83 1014.7
20260830124748 19 112 11.3 19.3 0.00 1.02 0.00 85 1014.6
20260830124240 19 101 9.7 17.7 0.00 1.02 0.00 85 1014.8
20260830123713 19 151 9.7 17.7 0.00 1.02 0.00 85 1014.9
20260830123212 18 111 9.7 17.7 0.00 1.02 0.00 86 1014.9
20260830122712 18 141 9.7 19.3 0.00 1.02 0.00 86 1014.9
20260830122212 18 160 9.7 19.3 0.00 1.02 0.00 87 1014.9
20260830121709 18 120 8.0 16.1 0.00 1.02 0.00 86 1014.8
20260830121142 18 116 11.3 22.5 0.00 1.02 0.00 86 1014.7
20260830120617 18 122 9.7 22.5 0.00 1.02 0.00 86 1014.7
20260830120327 18 115 6.4 16.1 0.00 1.02 0.00 86 1014.5
20260830120203 18 87 6.4 20.9 0.00 1.02 0.00 87 1014.6
20260830115934 18 128 4.8 16.1 0.00 1.02 0.00 87 1014.5
20260830114551 18 102 4.8 11.3 0.00 1.02 0.00 87 1014.6
20260830114301 18 110 3.2 11.3 0.00 1.02 0.00 88 1014.6
20260830113530 18 124 1.6 9.7 0.00 1.02 0.00 87 1014.5
20260830113030 18 99 1.6 6.4 0.00 1.02 0.00 88 1014.5
20260830112529 18 115 1.6 6.4 0.00 1.02 0.00 88 1014.6
20260830112031 18 139 1.6 6.4 0.00 1.02 0.00 90 1014.6
20260830111503 17 187 1.6 6.4 0.00 1.02 0.00 91 1014.4
20260830110959 17 141 1.6 6.4 0.00 1.02 0.00 92 1014.4
20260830110724 17 145 1.6 4.8 0.00 1.02 0.00 93 1014.3
20260830105951 17 153 1.6 6.4 0.00 1.02 0.00 94 1014.3
20260830105656 16 134 0.0 6.4 0.00 1.02 0.00 94 1014.2
20260830104855 16 135 1.6 6.4 0.00 1.02 0.00 94 1014.2
20260830104328 16 146 0.0 6.4 0.00 1.02 0.00 94 1014.3
20260830103828 16 132 1.6 6.4 0.00 1.02 0.00 95 1014.4
20260830103300 16 151 1.6 6.4 0.00 1.02 0.00 95 1014.2
20260830103009 16 144 0.0 4.8 0.00 1.02 0.00 95 1014.4
20260830102433 16 152 1.6 6.4 0.00 1.02 0.00 95 1014.4
20260830101922 16 149 1.6 6.4 0.00 1.02 0.00 95 1014.4
20260830101131 16 182 0.0 3.2 0.00 1.02 0.00 95 1014.5
20260830100624 16 128 0.0 3.2 0.00 1.02 0.00 95 1014.4
20260830100124 16 98 1.6 6.4 0.00 1.02 0.00 95 1014.4
20260830095624 16 137 1.6 6.4 0.00 1.02 0.00 95 1014.3
20260830095120 16 151 0.0 3.2 0.00 1.02 0.00 95 1014.3
20260830094621 16 177 0.0 3.2 0.00 1.02 0.00 95 1014.3
20260830094121 16 157 0.0 4.8 0.00 1.02 0.00 95 1014.1
20260830093609 16 130 1.6 4.8 0.00 1.02 0.00 95 1014.0
20260830093046 16 143 1.6 8.0 0.00 1.02 0.00 95 1013.7
20260830092543 16 155 1.6 8.0 0.00 1.02 0.00 96 1013.8
20260830092036 16 132 1.6 4.8 0.00 1.02 0.00 96 1014.0
20260830091541 16 149 0.0 3.2 0.00 1.02 0.00 96 1013.9
20260830091030 16 169 0.0 3.2 0.00 1.02 0.00 96 1014.0
20260830090759 16 104 1.6 3.2 0.00 1.02 0.00 96 1013.9
20260830090030 16 146 1.6 6.4 0.00 1.02 0.00 96 1013.9
20260830085524 16 116 1.6 6.4 0.00 1.02 0.00 96 1013.9
20260830085019 16 115 1.6 8.0 0.00 1.02 0.00 96 1013.7
20260830084521 16 99 1.6 8.0 0.00 1.02 0.00 96 1013.7
20260830084013 16 128 0.0 4.8 0.00 1.02 0.00 96 1013.7
20260830083451 16 114 0.0 4.8 0.00 1.02 0.00 97 1013.7
20260830083220 16 130 1.6 4.8 0.00 1.02 0.00 97 1013.8
20260830082436 16 147 1.6 8.0 0.00 1.02 0.00 97 1013.8
20260830081925 16 120 3.2 8.0 0.00 1.02 0.00 97 1013.7
20260830081423 16 144 1.6 6.4 0.00 1.02 0.00 97 1013.7
20260830081156 16 116 3.2 9.7 0.00 1.02 0.00 97 1013.6
20260830080410 16 166 3.2 9.7 0.00 1.02 0.00 97 1013.5
20260830080137 15 134 1.6 8.0 0.00 1.02 0.00 97 1013.5
20260830075406 15 129 1.6 6.4 0.00 1.02 0.00 97 1013.6
20260830074904 15 297 0.0 4.8 0.00 1.02 0.00 98 1013.6
20260830074402 15 187 1.6 6.4 0.00 1.02 0.00 98 1013.6
20260830073827 15 152 1.6 6.4 0.00 1.02 0.00 98 1013.6
20260830073324 15 140 0.0 6.4 0.00 1.02 0.00 98 1013.5
20260830072823 15 147 0.0 6.4 0.00 1.02 0.00 98 1013.4
20260830072321 15 187 0.0 4.8 0.00 1.02 0.00 98 1013.3
20260830071821 15 107 0.0 4.8 0.00 1.02 0.00 98 1013.4
20260830071321 15 128 0.0 3.2 0.00 1.02 0.00 98 1013.6
20260830070821 15 255 0.0 3.2 0.00 1.02 0.00 98 1013.7
20260830070313 15 206 0.0 3.2 0.00 1.02 0.00 98 1013.6
20260830070042 15 225 0.0 3.2 0.00 1.02 0.00 98 1013.7
20260830065309 15 187 0.0 0.0 0.00 1.02 0.00 98 1013.7
20260830064807 15 187 0.0 0.0 0.00 1.02 0.00 98 1013.5
20260830064240 15 187 0.0 0.0 0.00 1.02 0.00 98 1013.8
20260830063738 15 187 0.0 0.0 0.00 1.02 0.00 98 1013.7
20260830063239 15 187 0.0 0.0 0.00 1.02 0.00 98 1013.9
20260830062722 15 203 0.0 0.0 0.00 1.02 0.00 98 1014.0
20260830062221 15 95 0.0 0.0 0.00 1.02 0.00 98 1013.9
20260830061722 15 64 0.0 0.0 0.00 1.02 0.00 98 1014.0
20260830061218 15 124 0.0 0.0 0.00 1.02 0.00 98 1014.0
20260830060938 15 124 0.0 0.0 0.00 1.02 0.00 98 1013.9
20260830060204 15 124 0.0 0.0 0.00 1.02 0.00 98 1013.9
20260830055659 15 124 0.0 0.0 0.00 1.02 0.00 98 1013.8
20260830055432 15 124 0.0 1.6 0.00 1.02 0.00 98 1014.0
20260830055146 15 124 0.0 3.2 0.00 1.02 0.00 98 1014.0
20260830054141 16 317 0.0 4.8 0.00 1.02 0.00 98 1014.3
20260830053902 16 47 0.0 4.8 0.00 1.02 0.00 98 1014.0
20260830053107 16 144 0.0 3.2 0.00 1.02 0.00 98 1014.0
20260830052607 16 187 0.0 0.0 0.00 1.02 0.00 98 1014.1
20260830052049 16 187 0.0 0.0 0.00 1.02 0.00 98 1014.2
20260830051548 16 187 0.0 0.0 0.00 1.02 0.00 98 1014.5
20260830051033 16 187 0.0 0.0 0.00 1.02 0.00 98 1014.2
20260830050521 16 187 0.0 0.0 0.00 1.02 0.00 98 1014.2
20260830050002 16 187 0.0 0.0 0.00 1.02 0.00 98 1014.2
20260830045501 16 187 0.0 3.2 0.00 1.02 0.00 98 1014.3
20260830044958 16 187 0.0 3.2 0.00 1.02 0.00 98 1014.3
20260830044501 16 166 0.0 3.2 0.00 1.02 0.00 98 1014.3
20260830043942 16 147 0.0 3.2 0.00 1.02 0.00 98 1014.2
20260830043440 16 145 0.0 4.8 0.00 1.02 0.00 98 1014.2
20260830042933 16 140 0.0 4.8 0.00 1.02 0.00 98 1014.1
20260830042705 16 206 0.0 3.2 0.00 1.02 0.00 98 1014.3
20260830041935 15 162 0.0 3.2 0.00 1.02 0.00 98 1014.3
20260830041415 16 191 0.0 3.2 0.00 1.02 0.00 98 1014.6
20260830040914 16 212 0.0 3.2 0.00 1.02 0.00 98 1014.5
20260830040407 16 212 0.0 3.2 0.00 1.02 0.00 98 1014.6
20260830035838 16 235 0.0 1.6 0.00 1.02 0.00 98 1014.5
20260830035338 16 136 0.0 0.0 0.00 1.02 0.00 98 1014.5
20260830034834 16 136 0.0 0.0 0.00 1.02 0.00 98 1014.6
20260830034322 16 136 0.0 1.6 0.00 1.02 0.00 98 1014.5
20260830033809 15 136 0.0 1.6 0.00 1.02 0.00 98 1014.5
20260830033514 15 118 0.0 4.8 0.00 1.02 0.00 98 1014.4
20260830033001 16 118 0.0 4.8 0.00 1.02 0.00 98 1014.3